Location: Unspecified
(0.0000°N, 0.0000°E)
Time: 22:29:16
(UTC+00:00)

N. Korean satellite - Pass Details

Date: 11 August 2021
Orbit: 449 x 498 km, 97.3° (Epoch: 25 September)

Event Time Altitude Azimuth Distance (km) Brightness Sun altitude
Rises 04:11:16 0° 41° (NE) 2,445 11.0 -27.4°
Reaches altitude 10° 04:14:00 10° 66° (ENE) 1,573 10.1 -26.8°
Maximum altitude 04:15:55 14° 101° (E) 1,324 9.5 -26.3°
Drops below altitude 10° 04:17:50 10° 136° (SE) 1,574 9.4 -25.8°
Enters shadow 04:19:06 - 151° (SSE) 1,938 9.8 -25.5°
